Home > Weather > Tulkarm > Past weeks

Flag for Palestinian Territories Weather for the Past 2 Weeks in Tulkarm, West Bank, Palestinian Territories

Now
48 °F

Clear.


Feels Like: 47 °F
Forecast: 51 / 61 °F
Wind: 3 mph from North

Location: Ben Gurion International Airport

Current Time: Feb 10, 2016 at 3:42:16 AM

Latest Report: Feb 10, 2016 at 3:20 AM


Visibility: 10 mi

Pressure: 30.04 "Hg

Humidity: 76%

Dew point: 41 °F

Location of TulkarmLocation

Historic Weather in Tulkarm — Graph

°F

Tulkarm Temperature Yesterday

Maximum temperature yesterday: 68 °F (at 2:20 PM)
Minimum temperature yesterday: 45 °F (at 4:20 AM)
Average temperature yesterday: 56 °F

High & Low Weather Summary for the Past Weeks

 TemperatureHumidityPressure
High75 °F (Feb 4, 2:20 PM)94% (Feb 3, 6:50 AM)30.45 "Hg (Feb 3, 6:50 AM)
Low34 °F (Jan 28, 5:50 AM)21% (Feb 4, 2:20 PM)29.92 "Hg (Feb 5, 1:20 PM)
Average53 °F71%30.20 "Hg
* Reported Jan 26 2:20 AM — Feb 10 2:20 AM, Tulkarm, Weather by CustomWeather, © 2016

Note: Actual official high and low records may vary slightly from our data, if they occured in-between our weather recording intervals... More about our weather records

Advertising

Tulkarm Weather History for the Previous 24 Hours

 ConditionsComfort  
Time TempWeatherWind HumidityBarometerVisibility
2:20 AM
Wed, Feb 10
48 °FClear.3 mph76%30.04 "Hg10 mi
1:20 AM50 °FClear.5 mph76%30.07 "Hg10 mi
12:50 AM50 °FClear.2 mph76%30.07 "Hg10 mi
12:20 AM50 °FClear.2 mph76%30.07 "Hg10 mi
11:20 PM
Tue, Feb 9
52 °FClear.2 mph67%30.09 "Hg10 mi
10:50 PM52 °FClear.2 mph67%30.09 "Hg10 mi
10:20 PM54 °FClear.3 mph63%30.09 "Hg10 mi
9:50 PM54 °FClear.6 mph63%30.09 "Hg10 mi
9:20 PM54 °FClear.3 mph67%30.09 "Hg10 mi
8:50 PM54 °FClear.5 mph67%30.09 "Hg10 mi
8:20 PM54 °FClear.5 mph72%30.09 "Hg10 mi
7:50 PM55 °FClear.7 mph67%30.12 "Hg10 mi
7:20 PM55 °FClear.10 mph67%30.12 "Hg10 mi
6:50 PM59 °FClear.9 mph55%30.12 "Hg10 mi
6:20 PM59 °FPassing clouds.7 mph55%30.12 "HgN/A
5:50 PM61 °FPassing clouds.7 mph48%30.12 "HgN/A
5:20 PM63 °FPassing clouds.6 mph42%30.09 "HgN/A
4:20 PM66 °FPassing clouds.6 mph35%30.12 "HgN/A
3:20 PM66 °FScattered clouds.6 mph35%30.12 "HgN/A
2:50 PM66 °FScattered clouds.5 mph32%30.12 "HgN/A
2:20 PM68 °FScattered clouds.2 mph28%30.12 "HgN/A
1:50 PM66 °FScattered clouds.6 mph30%30.12 "HgN/A
1:20 PM66 °FScattered clouds.5 mph30%30.12 "HgN/A
12:20 PM64 °FScattered clouds.7 mph32%30.15 "HgN/A
11:50 AM64 °FScattered clouds.8 mph30%30.18 "HgN/A
11:20 AM64 °FScattered clouds.8 mph34%30.18 "HgN/A
10:50 AM64 °FPassing clouds.9 mph34%30.21 "HgN/A
10:20 AM63 °FSunny.8 mph39%30.21 "Hg10 mi
9:50 AM63 °FPassing clouds.8 mph42%30.24 "HgN/A
9:20 AM61 °FSunny.1 mph52%30.24 "Hg10 mi
8:50 AM57 °FSunny.1 mph63%30.24 "Hg10 mi
7:50 AM52 °FSunny.5 mph72%30.24 "Hg10 mi
7:20 AM50 °FSunny.3 mph82%30.24 "Hg10 mi
6:50 AM46 °FSunny.1 mph87%30.24 "Hg10 mi
6:20 AM46 °FClear.3 mph87%30.24 "Hg10 mi
5:50 AM45 °FClear.5 mph93%30.24 "Hg10 mi
5:20 AM45 °FClear.3 mph93%30.24 "Hg10 mi
4:50 AM46 °FClear.3 mph87%30.24 "Hg10 mi
4:20 AM45 °FClear.5 mph93%30.24 "Hg10 mi
3:50 AM46 °FClear.1 mph93%30.24 "Hg10 mi
3:20 AM48 °FClear.2 mph94%30.24 "Hg10 mi
Weather by CustomWeather, © 2016

See weather overviewHow to use our weather pages